SBI1226 UUDD-UWGG

Flight info

Callsign SBI1226
Flight time 0h 56m
Altitude 31000
Route KOGOM4N KOGOM L94 USTOK USTOK2P
Aircraft A319/M-SDE3FGHIRWY/LB1

Departure

Time 2026-05-08 17:27
Airport Domodedovo International Airport (UUDD)

Arrival

Time 2026-05-08 18:23
Airport Nizhny Novgorod / Strigino International Airport (UWGG)
Time Latitude Longitude Altitude Speed Heading
2026-05-08 16:13 55.41349 37.90298 551 ft 0 kts 49°
2026-05-08 17:14 55.41336 37.90271 562 ft 4 kts 49°
2026-05-08 17:14 55.41318 37.90236 560 ft 4 kts 50°
2026-05-08 17:14 55.41307 37.90198 555 ft 4 kts 95°
2026-05-08 17:15 55.41317 37.90161 555 ft 3 kts 142°
2026-05-08 17:15 55.41333 37.90139 550 ft 3 kts 145°
2026-05-08 17:15 55.41336 37.90136 561 ft 0 kts 145°
2026-05-08 17:19 55.41333 37.90140 550 ft 1 kts 144°
2026-05-08 17:19 55.41316 37.90162 555 ft 6 kts 144°
2026-05-08 17:19 55.41278 37.90209 550 ft 8 kts 147°
2026-05-08 17:20 55.41235 37.90266 550 ft 8 kts 143°
2026-05-08 17:20 55.41186 37.90313 550 ft 8 kts 169°
2026-05-08 17:20 55.41145 37.90258 556 ft 8 kts 242°
2026-05-08 17:20 55.41114 37.90177 550 ft 8 kts 233°
2026-05-08 17:21 55.41080 37.90095 550 ft 9 kts 234°
2026-05-08 17:21 55.41042 37.89994 550 ft 12 kts 235°
2026-05-08 17:21 55.40990 37.89865 550 ft 13 kts 234°
2026-05-08 17:21 55.40937 37.89727 550 ft 14 kts 234°
2026-05-08 17:22 55.40881 37.89588 550 ft 14 kts 232°
2026-05-08 17:22 55.40818 37.89458 550 ft 14 kts 239°
2026-05-08 17:22 55.40764 37.89318 551 ft 14 kts 234°
2026-05-08 17:22 55.40686 37.89291 551 ft 13 kts 139°
2026-05-08 17:23 55.40615 37.89386 551 ft 13 kts 143°
2026-05-08 17:23 55.40539 37.89482 551 ft 14 kts 149°
2026-05-08 17:23 55.40457 37.89571 551 ft 14 kts 147°
2026-05-08 17:23 55.40371 37.89676 551 ft 17 kts 144°
2026-05-08 17:24 55.40264 37.89810 551 ft 21 kts 149°
2026-05-08 17:24 55.40143 37.89947 553 ft 20 kts 144°
2026-05-08 17:24 55.40064 37.89968 551 ft 0 kts 231°
2026-05-08 17:25 55.40061 37.89960 551 ft 2 kts 238°
2026-05-08 17:25 55.40056 37.89912 551 ft 6 kts 276°
2026-05-08 17:25 55.40077 37.89830 554 ft 8 kts 297°
2026-05-08 17:26 55.40102 37.89740 558 ft 9 kts 296°
2026-05-08 17:26 55.40108 37.89642 554 ft 8 kts 268°
2026-05-08 17:26 55.40126 37.89605 561 ft 0 kts 324°
2026-05-08 17:26 55.40140 37.89588 557 ft 11 kts 324°
2026-05-08 17:27 55.40435 37.89226 555 ft 97 kts 327°
2026-05-08 17:27 55.41217 37.88297 592 ft 168 kts 328°
2026-05-08 17:27 55.42236 37.87103 1114 ft 182 kts 327°
2026-05-08 17:27 55.43167 37.85538 1850 ft 189 kts 317°
2026-05-08 17:28 55.44049 37.83720 2434 ft 200 kts 315°
2026-05-08 17:28 55.44955 37.81819 3142 ft 206 kts 317°
2026-05-08 17:28 55.46174 37.80381 3530 ft 222 kts 347°
2026-05-08 17:28 55.47760 37.80407 4049 ft 240 kts 20°
2026-05-08 17:29 55.49110 37.82216 4821 ft 256 kts 54°
2026-05-08 17:29 55.49856 37.85154 5615 ft 269 kts 68°
2026-05-08 17:29 55.50446 37.88355 6465 ft 279 kts 71°
2026-05-08 17:29 55.51000 37.91676 7282 ft 286 kts 72°
2026-05-08 17:30 55.51557 37.95094 8117 ft 293 kts 72°
2026-05-08 17:30 55.52132 37.98584 8962 ft 299 kts 72°
2026-05-08 17:30 55.52730 38.02146 9807 ft 306 kts 72°
2026-05-08 17:30 55.53358 38.05817 10350 ft 324 kts 72°
2026-05-08 17:31 55.54031 38.09701 10904 ft 337 kts 72°
2026-05-08 17:31 55.54724 38.13695 11655 ft 343 kts 72°
2026-05-08 17:31 55.55429 38.17759 12426 ft 349 kts 72°
2026-05-08 17:31 55.56148 38.21889 13197 ft 355 kts 71°
2026-05-08 17:32 55.56874 38.26078 13946 ft 360 kts 71°
2026-05-08 17:32 55.57640 38.30345 14452 ft 371 kts 67°
2026-05-08 17:32 55.58852 38.34437 14898 ft 380 kts 58°
2026-05-08 17:32 55.60154 38.38529 15538 ft 385 kts 58°
2026-05-08 17:33 55.61463 38.42694 16187 ft 389 kts 58°
2026-05-08 17:33 55.62779 38.46911 16840 ft 393 kts 58°
2026-05-08 17:33 55.64101 38.51164 17504 ft 397 kts 58°
2026-05-08 17:33 55.65419 38.55411 18160 ft 401 kts 58°
2026-05-08 17:34 55.66764 38.59755 18770 ft 404 kts 58°
2026-05-08 17:34 55.68140 38.64205 19363 ft 408 kts 58°
2026-05-08 17:34 55.69511 38.68638 19924 ft 412 kts 58°
2026-05-08 17:34 55.70875 38.73056 20496 ft 416 kts 58°
2026-05-08 17:35 55.72269 38.77576 21070 ft 419 kts 59°
2026-05-08 17:35 55.73688 38.82185 21645 ft 422 kts 59°
2026-05-08 17:35 55.75102 38.86778 22229 ft 425 kts 59°
2026-05-08 17:35 55.76502 38.91342 22777 ft 429 kts 59°
2026-05-08 17:36 55.77955 38.96086 23337 ft 432 kts 59°
2026-05-08 17:36 55.79396 39.00798 23849 ft 436 kts 59°
2026-05-08 17:36 55.80829 39.05487 24287 ft 439 kts 59°
2026-05-08 17:36 55.82307 39.10337 24736 ft 442 kts 59°
2026-05-08 17:37 55.83756 39.15103 25149 ft 446 kts 59°
2026-05-08 17:37 55.85236 39.19972 25534 ft 450 kts 59°
2026-05-08 17:37 55.86725 39.24891 25952 ft 453 kts 59°
2026-05-08 17:37 55.88218 39.29845 26367 ft 455 kts 59°
2026-05-08 17:38 55.89715 39.34828 26776 ft 458 kts 59°
2026-05-08 17:38 55.91225 39.39856 27182 ft 461 kts 59°
2026-05-08 17:38 55.92740 39.44914 27589 ft 464 kts 59°
2026-05-08 17:38 55.94261 39.50000 27995 ft 467 kts 59°
2026-05-08 17:39 55.95793 39.55128 28406 ft 469 kts 59°
2026-05-08 17:39 55.97327 39.60285 28807 ft 472 kts 60°
2026-05-08 17:39 55.98867 39.65476 29178 ft 476 kts 60°
2026-05-08 17:39 56.00426 39.70737 29500 ft 480 kts 60°
2026-05-08 17:40 56.01993 39.76028 29868 ft 483 kts 60°
2026-05-08 17:40 56.03570 39.81350 30235 ft 486 kts 60°
2026-05-08 17:40 56.05151 39.86695 30537 ft 488 kts 60°
2026-05-08 17:40 56.06743 39.92088 30850 ft 491 kts 60°
2026-05-08 17:41 56.08335 39.97505 31106 ft 494 kts 60°
2026-05-08 17:41 56.09946 40.02998 31166 ft 502 kts 60°
2026-05-08 17:41 56.13191 40.14134 31187 ft 510 kts 60°
2026-05-08 17:42 56.16466 40.25470 31172 ft 513 kts 60°
2026-05-08 17:42 56.19743 40.36828 31171 ft 512 kts 60°
2026-05-08 17:43 56.23009 40.48185 31162 ft 511 kts 60°
2026-05-08 17:43 56.25556 40.60092 31155 ft 515 kts 78°
2026-05-08 17:44 56.25972 40.66486 31182 ft 515 kts 89°
2026-05-08 17:44 56.25830 40.72921 31166 ft 515 kts 95°
2026-05-08 17:44 56.25569 40.79280 31156 ft 503 kts 95°
2026-05-08 17:44 56.25324 40.85430 31161 ft 484 kts 95°
2026-05-08 17:45 56.24855 40.97300 30945 ft 472 kts 95°
2026-05-08 17:45 56.24613 41.03178 30693 ft 470 kts 95°
2026-05-08 17:45 56.24366 41.09021 30190 ft 467 kts 96°
2026-05-08 17:46 56.24112 41.14835 29560 ft 466 kts 96°
2026-05-08 17:46 56.23854 41.20604 28991 ft 461 kts 95°
2026-05-08 17:46 56.23596 41.26334 28439 ft 457 kts 96°
2026-05-08 17:46 56.23340 41.31928 27906 ft 454 kts 96°
2026-05-08 17:47 56.23082 41.37564 27366 ft 451 kts 96°
2026-05-08 17:47 56.22826 41.43159 26846 ft 448 kts 95°
2026-05-08 17:47 56.22573 41.48723 26325 ft 445 kts 95°
2026-05-08 17:47 56.22402 41.52463 25982 ft 444 kts 95°
2026-05-08 17:48 56.22067 41.59717 25320 ft 441 kts 96°
2026-05-08 17:48 56.21805 41.65241 24834 ft 440 kts 96°
2026-05-08 17:48 56.21540 41.70715 24299 ft 439 kts 96°
2026-05-08 17:48 56.21272 41.76175 23778 ft 440 kts 96°
2026-05-08 17:49 56.21003 41.81650 23190 ft 439 kts 96°
2026-05-08 17:49 56.20733 41.87105 22635 ft 437 kts 96°
2026-05-08 17:49 56.20462 41.92528 22125 ft 435 kts 96°
2026-05-08 17:49 56.20284 41.96106 21767 ft 434 kts 96°
2026-05-08 17:50 56.19922 42.03308 21150 ft 430 kts 96°
2026-05-08 17:50 56.19649 42.08662 20600 ft 429 kts 96°
2026-05-08 17:50 56.19374 42.13952 20216 ft 423 kts 96°
2026-05-08 17:50 56.19191 42.17416 19729 ft 420 kts 96°
2026-05-08 17:51 56.18916 42.22579 19211 ft 411 kts 96°
2026-05-08 17:51 56.18643 42.27664 18739 ft 409 kts 96°
2026-05-08 17:51 56.18365 42.32736 18246 ft 407 kts 96°
2026-05-08 17:51 56.18086 42.37784 17760 ft 405 kts 96°
2026-05-08 17:52 56.17804 42.42841 17298 ft 416 kts 96°
2026-05-08 17:52 56.17512 42.48057 16825 ft 422 kts 96°
2026-05-08 17:52 56.16925 42.58503 15853 ft 418 kts 96°
2026-05-08 17:53 56.16634 42.63670 15399 ft 415 kts 96°
2026-05-08 17:53 56.16342 42.68804 14925 ft 412 kts 96°
2026-05-08 17:53 56.16049 42.73905 14458 ft 410 kts 96°
2026-05-08 17:53 56.15754 42.78966 13996 ft 407 kts 96°
2026-05-08 17:54 56.15457 42.83993 13493 ft 403 kts 96°
2026-05-08 17:54 56.15162 42.88959 12952 ft 399 kts 96°
2026-05-08 17:54 56.14870 42.93879 12418 ft 395 kts 96°
2026-05-08 17:54 56.14580 42.98761 11885 ft 391 kts 96°
2026-05-08 17:55 56.14290 43.03593 11135 ft 392 kts 96°
2026-05-08 17:55 56.13987 43.08521 10280 ft 400 kts 96°
2026-05-08 17:55 56.13682 43.13477 9994 ft 401 kts 96°
2026-05-08 17:55 56.13228 43.18403 9822 ft 400 kts 107°
2026-05-08 17:56 56.12047 43.22864 9690 ft 396 kts 127°
2026-05-08 17:56 56.10195 43.26453 9488 ft 391 kts 142°
2026-05-08 17:56 56.08155 43.29632 8983 ft 387 kts 142°
2026-05-08 17:56 56.06142 43.32721 8489 ft 385 kts 142°
2026-05-08 17:57 56.04115 43.35806 7998 ft 381 kts 142°
2026-05-08 17:57 56.02128 43.38825 7648 ft 362 kts 141°
2026-05-08 17:57 56.00272 43.41665 7156 ft 346 kts 140°
2026-05-08 17:57 55.98766 43.44907 6624 ft 334 kts 119°
2026-05-08 17:58 55.97951 43.48680 6166 ft 318 kts 101°
2026-05-08 17:58 55.97487 43.52445 5751 ft 304 kts 99°
2026-05-08 17:58 55.97057 43.56057 5359 ft 288 kts 95°
2026-05-08 17:58 55.97014 43.59444 5252 ft 260 kts 79°
2026-05-08 17:59 55.97377 43.62429 5149 ft 234 kts 65°
2026-05-08 17:59 55.98020 43.64958 5009 ft 214 kts 53°
2026-05-08 17:59 55.98850 43.67027 4847 ft 197 kts 43°
2026-05-08 17:59 55.99789 43.68648 4661 ft 181 kts 34°
2026-05-08 18:00 56.00786 43.69861 4440 ft 167 kts 24°
2026-05-08 18:00 56.02775 43.71231 4038 ft 140 kts
2026-05-08 18:00 56.03689 43.71563 3880 ft 131 kts
2026-05-08 18:01 56.04568 43.71881 3705 ft 127 kts
2026-05-08 18:01 56.05433 43.72195 3537 ft 127 kts
2026-05-08 18:01 56.06294 43.72507 3364 ft 126 kts
2026-05-08 18:01 56.07156 43.72819 3186 ft 127 kts
2026-05-08 18:02 56.08008 43.73128 3010 ft 126 kts
2026-05-08 18:02 56.08865 43.73439 2833 ft 125 kts
2026-05-08 18:02 56.09717 43.73747 2669 ft 125 kts
2026-05-08 18:02 56.10567 43.74049 2505 ft 124 kts
2026-05-08 18:03 56.11420 43.74350 2332 ft 125 kts
2026-05-08 18:03 56.12269 43.74647 2157 ft 124 kts
2026-05-08 18:03 56.13110 43.74975 1999 ft 124 kts
2026-05-08 18:03 56.13946 43.75349 1840 ft 123 kts 10°
2026-05-08 18:04 56.14786 43.75640 1647 ft 123 kts
2026-05-08 18:04 56.15631 43.75898 1439 ft 123 kts
2026-05-08 18:04 56.16464 43.76214 1296 ft 122 kts
2026-05-08 18:04 56.17293 43.76570 1101 ft 124 kts
2026-05-08 18:05 56.18155 43.76861 847 ft 127 kts
2026-05-08 18:05 56.19003 43.77131 723 ft 124 kts
2026-05-08 18:05 56.19853 43.77455 523 ft 124 kts
2026-05-08 18:05 56.20694 43.77742 408 ft 125 kts
2026-05-08 18:06 56.21544 43.78058 323 ft 123 kts
2026-05-08 18:06 56.22363 43.78341 275 ft 109 kts 10°
2026-05-08 18:06 56.23060 43.78611 365 ft 109 kts 11°
2026-05-08 18:06 56.23811 43.79108 759 ft 121 kts 17°
2026-05-08 18:07 56.24600 43.79762 1223 ft 127 kts 21°
2026-05-08 18:07 56.25258 43.80973 1562 ft 158 kts 59°
2026-05-08 18:07 56.25267 43.83153 1801 ft 195 kts 103°
2026-05-08 18:07 56.24397 43.85203 2014 ft 224 kts 141°
2026-05-08 18:08 56.22927 43.86287 1996 ft 232 kts 167°
2026-05-08 18:08 56.21330 43.86771 2034 ft 233 kts 173°
2026-05-08 18:08 56.19677 43.87161 2043 ft 252 kts 174°
2026-05-08 18:08 56.17830 43.87418 2038 ft 273 kts 181°
2026-05-08 18:09 56.15942 43.87335 2164 ft 280 kts 184°
2026-05-08 18:09 56.13944 43.87201 2821 ft 293 kts 184°
2026-05-08 18:09 56.11906 43.87056 2993 ft 293 kts 184°
2026-05-08 18:09 56.09885 43.86909 3021 ft 285 kts 184°
2026-05-08 18:10 56.07982 43.86635 3023 ft 264 kts 195°
2026-05-08 18:10 56.06366 43.85449 3022 ft 241 kts 217°
2026-05-08 18:10 56.05182 43.83488 3021 ft 226 kts 239°
2026-05-08 18:10 56.04471 43.81069 3021 ft 216 kts 259°
2026-05-08 18:11 56.04273 43.78489 3028 ft 205 kts 282°
2026-05-08 18:11 56.04660 43.76138 3021 ft 193 kts 303°
2026-05-08 18:11 56.05339 43.74085 3017 ft 191 kts 314°
2026-05-08 18:11 56.06377 43.72922 3016 ft 173 kts 350°
2026-05-08 18:12 56.07565 43.73048 3036 ft 170 kts
2026-05-08 18:12 56.08711 43.73419 2900 ft 163 kts
2026-05-08 18:12 56.09789 43.73791 2660 ft 152 kts
2026-05-08 18:12 56.10785 43.74145 2467 ft 141 kts
2026-05-08 18:13 56.11702 43.74475 2289 ft 130 kts
2026-05-08 18:13 56.12571 43.74788 2116 ft 126 kts
2026-05-08 18:13 56.13422 43.75096 1937 ft 124 kts
2026-05-08 18:13 56.14262 43.75401 1775 ft 123 kts
2026-05-08 18:14 56.15089 43.75701 1607 ft 122 kts
2026-05-08 18:14 56.15925 43.76005 1446 ft 122 kts
2026-05-08 18:14 56.16739 43.76303 1272 ft 122 kts
2026-05-08 18:14 56.17583 43.76612 1038 ft 127 kts
2026-05-08 18:15 56.18427 43.76926 899 ft 124 kts
2026-05-08 18:15 56.19269 43.77204 705 ft 120 kts
2026-05-08 18:15 56.20100 43.77528 554 ft 125 kts
2026-05-08 18:15 56.20922 43.77815 450 ft 124 kts
2026-05-08 18:16 56.21775 43.78155 292 ft 123 kts 10°
2026-05-08 18:16 56.22542 43.78437 268 ft 106 kts 14°
2026-05-08 18:16 56.23255 43.78673 370 ft 112 kts
2026-05-08 18:16 56.24024 43.79091 883 ft 126 kts 14°
2026-05-08 18:17 56.24876 43.79574 1479 ft 134 kts 21°
2026-05-08 18:17 56.25525 43.81042 1780 ft 177 kts 68°
2026-05-08 18:17 56.25488 43.83491 2006 ft 218 kts 103°
2026-05-08 18:17 56.24610 43.85754 2031 ft 228 kts 140°
2026-05-08 18:18 56.23147 43.86796 2036 ft 230 kts 177°
2026-05-08 18:18 56.21561 43.86578 2038 ft 230 kts 192°
2026-05-08 18:18 56.19985 43.86086 2037 ft 230 kts 193°
2026-05-08 18:18 56.18416 43.85561 2036 ft 229 kts 193°
2026-05-08 18:19 56.16854 43.85016 2033 ft 230 kts 194°
2026-05-08 18:19 56.15276 43.84472 2038 ft 230 kts 193°
2026-05-08 18:19 56.13714 43.83922 2037 ft 228 kts 193°
2026-05-08 18:19 56.12163 43.83362 2033 ft 229 kts 194°
2026-05-08 18:20 56.10597 43.82757 2027 ft 229 kts 201°
2026-05-08 18:20 56.09258 43.81305 2024 ft 221 kts 233°
2026-05-08 18:20 56.08550 43.78808 2037 ft 239 kts 268°
2026-05-08 18:20 56.08795 43.75935 2029 ft 236 kts 303°
2026-05-08 18:21 56.09987 43.74040 2027 ft 230 kts 341°
2026-05-08 18:21 56.11559 43.74017 2033 ft 233 kts 15°
2026-05-08 18:21 56.13107 43.74958 1928 ft 235 kts 13°
2026-05-08 18:21 56.14680 43.75582 1661 ft 226 kts
2026-05-08 18:22 56.16132 43.76094 1408 ft 206 kts
2026-05-08 18:22 56.17464 43.76574 1126 ft 172 kts
2026-05-08 18:22 56.18542 43.76965 903 ft 147 kts
2026-05-08 18:22 56.19481 43.77306 718 ft 129 kts
2026-05-08 18:23 56.20335 43.77605 537 ft 124 kts
2026-05-08 18:23 56.21177 43.77921 363 ft 125 kts 10°
2026-05-08 18:23 56.22005 43.78236 277 ft 121 kts
2026-05-08 18:23 56.22573 43.78426 265 ft 42 kts 11°
2026-05-08 18:24 56.22826 43.78509 266 ft 34 kts 14°
2026-05-08 18:24 56.23052 43.78600 269 ft 32 kts 12°
2026-05-08 18:24 56.23266 43.78680 267 ft 32 kts 12°
2026-05-08 18:24 56.23489 43.78761 265 ft 34 kts 11°
2026-05-08 18:25 56.23720 43.78839 265 ft 33 kts 10°
2026-05-08 18:25 56.23933 43.78911 267 ft 29 kts 12°
2026-05-08 18:25 56.24095 43.78994 268 ft 14 kts 23°
2026-05-08 18:25 56.24100 43.79143 266 ft 15 kts 121°
2026-05-08 18:26 56.24061 43.79247 266 ft 0 kts 127°
2026-05-08 18:26 56.24056 43.79252 266 ft 1 kts 147°
2026-05-08 18:26 56.24047 43.79259 266 ft 2 kts 159°
2026-05-08 18:26 56.24024 43.79271 266 ft 5 kts 162°
2026-05-08 18:27 56.23986 43.79275 266 ft 9 kts 182°
2026-05-08 18:27 56.23938 43.79272 266 ft 11 kts 184°
2026-05-08 18:27 56.23831 43.79262 266 ft 12 kts 181°
2026-05-08 18:27 56.23748 43.79257 266 ft 12 kts 186°
2026-05-08 18:28 56.23665 43.79250 266 ft 12 kts 185°
2026-05-08 18:28 56.23578 43.79247 266 ft 12 kts 186°
2026-05-08 18:28 56.23491 43.79228 266 ft 13 kts 191°
2026-05-08 18:28 56.23402 43.79195 266 ft 13 kts 193°
2026-05-08 18:29 56.23309 43.79162 266 ft 14 kts 191°
2026-05-08 18:29 56.23214 43.79133 266 ft 14 kts 187°
2026-05-08 18:29 56.23123 43.79103 266 ft 14 kts 193°
2026-05-08 18:29 56.23028 43.79069 266 ft 14 kts 189°
2026-05-08 18:30 56.22932 43.79030 266 ft 14 kts 192°
2026-05-08 18:30 56.22834 43.78991 266 ft 14 kts 187°
2026-05-08 18:30 56.22733 43.78957 266 ft 15 kts 193°
2026-05-08 18:30 56.22637 43.78921 266 ft 15 kts 200°
2026-05-08 18:31 56.22537 43.78879 266 ft 15 kts 192°
2026-05-08 18:31 56.22469 43.78864 266 ft 4 kts 150°
2026-05-08 18:31 56.22466 43.78882 266 ft 0 kts 110°
2026-05-08 18:31 56.22465 43.78883 266 ft 0 kts 114°
2026-05-08 18:32 56.22464 43.78883 266 ft 1 kts 125°
2026-05-08 18:32 56.22447 43.78869 266 ft 11 kts 205°
2026-05-08 18:32 56.22370 43.78789 266 ft 13 kts 195°
2026-05-08 18:32 56.22286 43.78777 266 ft 11 kts 158°
2026-05-08 18:33 56.22227 43.78850 266 ft 3 kts 146°
2026-05-08 18:33 56.22223 43.78856 266 ft 0 kts 145°